Location: London
(51.5074°N, 0.1278°W)
Time: 21:48:53
(UTC+01:00)

DELFI C3 - Pass Details

Date: 08 October 2020
Orbit: 535 x 549 km, 97.4° (Epoch: 22 October)

Event Time Altitude Azimuth Distance (km) Brightness Sun altitude
Exits shadow 19:07:50 10° 88° (E) 1,802 ? -8.0°
Maximum altitude 19:09:48 14° 58° (ENE) 1,585 ? -8.3°
Drops below altitude 10° 19:11:53 10° 26° (NNE) 1,835 ? -8.6°
Sets 19:14:52 0° 1° (N) 2,736 ? -9.1°
